Northfield, Minnesota, United States (55057)
Lat: 44.46N, Lon: 93.16W
Wx Zone: MNZ077
Local Info
Past Weather Observations for Today

NOTE: This archive is for the closest National Weather Service station to Northfield. Information may differ from the station used for current weather conditions.

Click here for Long-term Archive

Time Weather Temperature Dewpoint Humidity Pressure Winds Precip Visibility
19:54
Overcast
Light Rain
37°F / 3°C 34°F / 1°C 87% 29.59 in
(1002 mb)
E 9.2 mph
(E 15 kph)
- 4SM
19:34
Overcast
Drizzle
37°F / 3°C 34°F / 1°C 87% 29.59 in
(1002 mb)
E 8.1 mph
(E 13 kph)
- 5SM
19:14
Overcast
Drizzle
37°F / 3°C 34°F / 1°C 87% 29.59 in
(1002 mb)
E 9.2 mph
(E 15 kph)
- 5SM
18:54
Overcast
Drizzle
37°F / 3°C 34°F / 1°C 87% 29.59 in
(1002 mb)
E 9.2 mph
(E 15 kph)
0.01 in
(0.25 mm)
5SM
18:34
Overcast
Rain
37°F / 3°C 34°F / 1°C 87% 29.59 in
(1002 mb)
E 9.2 mph
(E 15 kph)
- 5SM
18:14
Overcast
Rain
37°F / 3°C 34°F / 1°C 87% 29.59 in
(1002 mb)
E 9.2 mph
(E 15 kph)
- 5SM
17:54
Overcast
Drizzle
37°F / 3°C 34°F / 1°C 87% 29.56 in
(1001 mb)
E 10.4 mph
(E 17 kph)
0.01 in
(0.25 mm)
4SM
17:33
Overcast
Drizzle
37°F / 3°C 34°F / 1°C 87% 29.59 in
(1002 mb)
E 10.4 mph
(E 17 kph)
0.01 in
(0.25 mm)
4SM
17:14
Overcast
Drizzle
37°F / 3°C 34°F / 1°C 87% 29.59 in
(1002 mb)
E 10.4 mph
(E 17 kph)
0.01 in
(0.25 mm)
5SM
16:54
Overcast
Drizzle
37°F / 3°C 34°F / 1°C 87% 29.59 in
(1002 mb)
E 10.4 mph
(E 17 kph)
- 5SM
16:34
Overcast
Rain
37°F / 3°C 34°F / 1°C 87% 29.59 in
(1002 mb)
E 9.2 mph
(E 15 kph)
- 4SM
16:14
Overcast
Drizzle
37°F / 3°C 34°F / 1°C 87% 29.59 in
(1002 mb)
ESE 9.2 mph
(ESE 15 kph)
- 4SM
15:54
Overcast
Drizzle
37°F / 3°C 34°F / 1°C 87% 29.56 in
(1001 mb)
E 8.1 mph
(E 13 kph)
0.01 in
(0.25 mm)
3SM
15:33
Overcast
Drizzle
37°F / 3°C 36°F / 2°C 93% 29.59 in
(1002 mb)
ESE 6.9 mph
(ESE 11 kph)
- 4SM
15:14
Overcast
Drizzle
37°F / 3°C 36°F / 2°C 93% 29.59 in
(1002 mb)
ESE 6.9 mph
(ESE 11 kph)
- 4SM
14:54
Overcast
Rain
37°F / 3°C 34°F / 1°C 87% 29.59 in
(1002 mb)
SE 8.1 mph
(SE 13 kph)
0.01 in
(0.25 mm)
3SM
14:34
Overcast
Drizzle
37°F / 3°C 34°F / 1°C 87% 29.59 in
(1002 mb)
ESE 6.9 mph
(ESE 11 kph)
- 3SM
14:14
Overcast
Drizzle
37°F / 3°C 34°F / 1°C 87% 29.59 in
(1002 mb)
SE 6.9 mph
(SE 11 kph)
- 3SM
13:54
Overcast
Light Rain
37°F / 3°C 34°F / 1°C 87% 29.59 in
(1002 mb)
SE 9.2 mph
(SE 15 kph)
0.01 in
(0.25 mm)
3SM
13:34
Overcast
Drizzle
37°F / 3°C 34°F / 1°C 87% 29.59 in
(1002 mb)
SE 10.4 mph
(SE 17 kph)
- 3SM
13:14
Overcast
Drizzle
37°F / 3°C 34°F / 1°C 87% 29.59 in
(1002 mb)
SE 6.9 mph
(SE 11 kph)
- 3SM
12:54
Overcast
Rain
37°F / 3°C 34°F / 1°C 87% 29.59 in
(1002 mb)
SE 9.2 mph
(SE 15 kph)
0.01 in
(0.25 mm)
3SM
12:34
Overcast
Rain
37°F / 3°C 34°F / 1°C 87% 29.59 in
(1002 mb)
SE 8.1 mph
(SE 13 kph)
- 3SM
12:14
Overcast
Rain
37°F / 3°C 34°F / 1°C 87% 29.59 in
(1002 mb)
SE 8.1 mph
(SE 13 kph)
- 4SM
11:54
Overcast
Light Rain
37°F / 3°C 34°F / 1°C 87% 29.59 in
(1002 mb)
SE 11.5 mph
(SE 19 kph)
0.03 in
(0.76 mm)
4SM
11:34
Overcast
Light Rain
37°F / 3°C 34°F / 1°C 87% 29.62 in
(1003 mb)
SE 9.2 mph
(SE 15 kph)
- 3SM
11:14
Overcast
Drizzle
37°F / 3°C 34°F / 1°C 87% 29.62 in
(1003 mb)
SE 11.5 mph
(SE 19 kph)
- 3SM
10:54
Overcast
Drizzle
37°F / 3°C 34°F / 1°C 87% 29.62 in
(1003 mb)
SE 13.8 mph
(SE 22 kph)
- 3SM
10:34
Overcast
Drizzle
37°F / 3°C 34°F / 1°C 87% 29.65 in
(1004 mb)
SE 10.4 mph
(SE 17 kph)
- 3SM
10:14
Overcast
Light Rain
37°F / 3°C 34°F / 1°C 87% 29.65 in
(1004 mb)
SE 11.5 mph
(SE 19 kph)
- 3SM
09:54
Overcast
Drizzle
37°F / 3°C 34°F / 1°C 87% 29.65 in
(1004 mb)
SE 12.7 mph
(SE 20 kph)
- 3SM
09:34
Overcast
Drizzle
37°F / 3°C 34°F / 1°C 87% 29.65 in
(1004 mb)
SE 10.4 mph
(SE 17 kph)
- 3SM
09:14
Overcast
Drizzle
37°F / 3°C 34°F / 1°C 87% 29.65 in
(1004 mb)
SE 10.4 mph
(SE 17 kph)
- 3SM
08:54
Overcast
Fog And Mist
37°F / 3°C 34°F / 1°C 87% 29.65 in
(1004 mb)
SE 12.7 mph
(SE 20 kph)
- 2 1/2SM
08:34
Overcast
Fog And Mist
37°F / 3°C 34°F / 1°C 87% 29.65 in
(1004 mb)
SE 18.4 mph
(SE 30 kph)
- 3SM
08:14
Overcast
Fog And Mist
37°F / 3°C 34°F / 1°C 87% 29.65 in
(1004 mb)
SE 15 mph
(SE 24 kph)
- 3SM
07:54
Overcast
Fog And Mist
37°F / 3°C 34°F / 1°C 87% 29.65 in
(1004 mb)
SE 16.1 mph
(SE 26 kph)
- 5SM
07:34
Overcast
Fog And Mist
37°F / 3°C 34°F / 1°C 87% 29.65 in
(1004 mb)
SE 16.1 mph
(SE 26 kph)
- 5SM
07:14
Overcast
Fog And Mist
37°F / 3°C 34°F / 1°C 87% 29.65 in
(1004 mb)
SSE 13.8 mph
(SSE 22 kph)
- 5SM
06:54
Overcast
Fog And Mist
37°F / 3°C 36°F / 2°C 93% 29.65 in
(1004 mb)
SE 15 mph
(SE 24 kph)
0.01 in
(0.25 mm)
5SM
06:34
Overcast
Fog And Mist
37°F / 3°C 36°F / 2°C 93% 29.65 in
(1004 mb)
SE 15 mph
(SE 24 kph)
0.01 in
(0.25 mm)
4SM
06:14
Overcast
Light Rain
37°F / 3°C 36°F / 2°C 93% 29.65 in
(1004 mb)
SSE 11.5 mph
(SSE 19 kph)
0.01 in
(0.25 mm)
3SM
05:54
Overcast
Drizzle
37°F / 3°C 36°F / 2°C 93% 29.65 in
(1004 mb)
SE 12.7 mph
(SE 20 kph)
- 3SM
05:34
Overcast
Rain
39°F / 4°C 36°F / 2°C 87% 29.65 in
(1004 mb)
SSE 13.8 mph
(SSE 22 kph)
- 4SM
05:14
Overcast
Fog And Mist
39°F / 4°C 36°F / 2°C 87% 29.65 in
(1004 mb)
SSE 13.8 mph
(SSE 22 kph)
- 4SM
04:54
Overcast
Fog And Mist
39°F / 4°C 36°F / 2°C 87% 29.68 in
(1005 mb)
SSE 12.7 mph
(SSE 20 kph)
- 5SM
04:34
Overcast
Fog And Mist
39°F / 4°C 36°F / 2°C 87% 29.68 in
(1005 mb)
SSE 12.7 mph
(SSE 20 kph)
- 5SM
04:14
Overcast
Fog And Mist
39°F / 4°C 36°F / 2°C 87% 29.68 in
(1005 mb)
SSE 11.5 mph
(SSE 19 kph)
- 5SM
03:54
Overcast
Fog And Mist
39°F / 4°C 36°F / 2°C 87% 29.68 in
(1005 mb)
SSE 13.8 mph
(SSE 22 kph)
- 5SM
03:34
Overcast
Fog And Mist
39°F / 4°C 36°F / 2°C 87% 29.68 in
(1005 mb)
SSE 11.5 mph
(SSE 19 kph)
- 5SM
03:13
Overcast
39°F / 4°C 36°F / 2°C 87% 29.68 in
(1005 mb)
SSE 9.2 mph
(SSE 15 kph)
- 7SM
02:54
Overcast
39°F / 4°C 36°F / 2°C 87% 29.68 in
(1005 mb)
SSE 15 mph
(SSE 24 kph)
- 7SM
02:34
Overcast
Fog And Mist
39°F / 4°C 36°F / 2°C 87% 29.68 in
(1005 mb)
SSE 12.7 mph
(SSE 20 kph)
- 5SM
02:14
Overcast
Drizzle
39°F / 4°C 36°F / 2°C 87% 29.71 in
(1006 mb)
SSE 12.7 mph
(SSE 20 kph)
- 3SM
01:54
Overcast
Fog And Mist
39°F / 4°C 36°F / 2°C 87% 29.71 in
(1006 mb)
SSE 15 mph
(SSE 24 kph)
- 4SM
01:34
Overcast
Fog And Mist
39°F / 4°C 36°F / 2°C 87% 29.71 in
(1006 mb)
SSE 13.8 mph
(SSE 22 kph)
- 4SM
01:14
Overcast
Fog And Mist
39°F / 4°C 36°F / 2°C 87% 29.71 in
(1006 mb)
SSE 18.4 mph
(SSE 30 kph)
- 5SM
00:54
Overcast
Fog And Mist
39°F / 4°C 37°F / 3°C 93% 29.71 in
(1006 mb)
SSE 13.8 mph
(SSE 22 kph)
- 5SM
00:34
Overcast
Fog And Mist
39°F / 4°C 36°F / 2°C 87% 29.71 in
(1006 mb)
SSE 12.7 mph
(SSE 20 kph)
- 5SM
00:14
Overcast
Fog And Mist
39°F / 4°C 36°F / 2°C 87% 29.71 in
(1006 mb)
SSE 16.1 mph
(SSE 26 kph)
- 5SM
Time Weather Temperature Dewpoint Humidity Pressure Winds Precip Visibility


Weather for websites

WeatherForYou.com, LLC is not responsible for any damages or problems caused by this service. Current weather conditions are obtained from the closest station including government and personal stations which may have varying degrees of accuracy. Weather forecasts are derived from the NOAA NDFD. Like all things, this site belongs to Jesus Christ... He just trusts me to maintain it. If you have any questions or comments email webmaster@weatherforyou.com

Copyright © 2014, WeatherForYou.com LLC. All rights reserved.